Location: Los Ranchitos
(37.9930°N, 122.5425°W)
Time: 02:55:37
(UTC+00:00)

CZ-2C R/B - Pass Details

Date: 21 September 2020
Orbit: 785 x 870 km, 98.2° (Epoch: 27 October)

Event Time Altitude Azimuth Distance (km) Brightness Sun altitude
Rises 03:09:48 0° 22° (NNE) 3,430 5.8 -12.7°
Reaches altitude 10° 03:12:22 10° 30° (NNE) 2,500 5.0 -13.2°
Maximum altitude 03:17:29 37° 97° (E) 1,324 3.2 -14.2°
Drops below altitude 10° 03:22:37 10° 164° (SSE) 2,507 4.9 -15.2°
Sets 03:25:10 0° 172° (S) 3,440 5.7 -15.7°
